RH
64 50 36 33 34 37 36 35 28 27 22 14 13 16 14 14 22 14 32 39 38 34 47 66 82 79 76 74 74 74 74 74 68 64 63 63 64 63 63 63 63 62 61 61 60 60 59 57 55
47 41 33 36 45 40 38 37 32 24 22 17 12 12 12 12 14 18 27 40 35 37 53 52 83 81 78 78 78 78 77 75 72 67 65 64 64 64 65 66 66 65 64 64 63 63 64 62 61
36 27 29 36 44 38 28 31 26 26 22 21 14 11 12 13 18 22 27 42 36 42 50 61 84 82 80 80 81 82 80 78 73 66 64 62 64 65 69 68 67 64 63 59 62 61 59 61 63
27 29 34 40 41 40 35 27 29 24 19 15 12 13 14 14 17 19 30 38 36 35 46 61 84 84 82 81 82 83 82 79 73 68 67 67 68 73 73 73 70 68 67 64 63 62 66 63 64
33 35 32 48 43 38 33 28 28 24 21 16 13 14 16 15 19 24 35 39 36 36 40 49 84 85 84 82 83 83 82 81 80 73 71 71 75 75 75 74 73 71 68 67 65 66 69 70 71
31 35 40 34 33 31 28 24 24 22 18 16 14 15 15 16 22 24 33 40 35 41 48 53 77 86 85 84 83 84 84 84 83 80 79 77 78 76 74 73 69 68 68 68 69 70 71 72 72
30 37 31 36 32 30 25 22 21 17 18 16 13 16 15 15 17 27 34 38 39 44 50 59 58 74 86 85 84 86 86 87 86 85 84 83 77 76 73 69 67 68 68 69 70 68 71 72 71
32 32 34 35 25 22 22 20 16 18 18 15 15 17 19 16 24 32 36 36 38 44 45 55 62 57 62 62 86 87 88 88 88 87 86 85 77 74 68 72 70 70 70 70 70 67 68 72 75
34 33 29 26 27 18 21 20 20 17 20 17 16 17 15 21 29 32 39 37 37 42 47 51 51 58 60 58 63 85 84 84 86 80 82 80 57 55 58 64 74 70 69 69 69 69 70 70 71
33 36 28 20 19 20 22 22 23 23 22 21 19 18 16 20 22 24 33 31 38 40 45 47 57 62 62 58 68 67 64 59 63 65 66 62 62 64 63 67 73 71 70 70 69 70 76 72 56
32 36 25 21 21 22 21 23 20 23 23 18 21 21 20 19 24 26 22 23 25 34 40 53 66 70 66 61 63 63 62 63 68 73 73 68 64 65 64 61 59 63 67 57 60 60 55 56 56
35 31 27 23 22 24 24 22 26 24 24 20 21 22 22 22 23 23 23 23 28 32 41 56 66 74 73 63 62 59 60 63 60 62 74 72 67 71 72 62 62 69 62 67 69 60 68 66 64
37 28 27 28 26 26 27 29 29 26 21 18 19 22 24 22 22 24 26 24 26 34 42 57 67 73 76 76 60 60 61 57 58 62 66 67 63 72 70 69 65 67 60 65 67 67 65 64 69
20 27 26 25 26 25 27 25 26 24 22 20 21 20 18 18 20 22 30 34 36 40 46 56 66 75 70 67 71 65 66 59 61 60 63 75 69 75 67 69 67 67 67 67 66 62 66 63 75
24 29 27 27 27 28 22 22 21 17 17 19 19 19 19 19 18 23 27 39 39 39 49 60 66 68 71 68 66 66 59 63 64 63 75 74 77 79 80 73 78 77 78 81 72 71 72 72 75
19 21 20 15 18 17 18 21 13 14 17 18 19 19 19 21 20 20 26 38 38 44 55 58 51 63 69 69 66 60 63 64 68 69 71 76 80 81 82 76 75 76 74 70 66 69 68 70 73
25 20 23 18 18 17 20 17 12 15 18 20 20 18 17 18 21 28 29 32 48 52 56 59 62 60 66 73 64 68 74 68 68 70 69 76 76 79 80 78 74 81 73 69 74 73 71 82 85
25 28 22 22 14 13 14 17 14 17 17 20 19 19 20 23 23 24 32 39 50 53 62 68 68 70 71 66 70 66 68 65 67 69 66 76 75 78 81 93 86 82 76 72 77 83 76 81 79
19 22 23 19 14 15 15 17 19 18 17 18 21 22 25 27 24 32 39 47 55 59 65 69 69 76 69 63 59 63 62 65 67 70 75 76 76 76 87 83 81 82 76 77 84 80 82 88 84
20 22 23 19 16 19 18 20 19 20 20 18 19 22 24 24 26 43 51 57 59 63 66 68 70 76 69 62 66 63 66 66 69 70 78 78 76 80 85 85 89 85 81 86 84 83 84 89 83
22 22 21 20 17 20 24 23 21 16 19 18 18 22 24 26 29 48 55 58 57 64 68 68 72 74 70 69 70 76 75 73 68 71 72 77 77 80 88 84 80 77 82 87 84 81 82 84 88
26 19 18 19 24 25 22 29 24 21 19 18 18 22 22 24 39 49 54 61 62 61 60 66 69 73 70 75 71 78 68 67 71 74 74 78 80 75 88 82 74 78 79 87 78 73 72 86 79
21 17 22 22 25 27 26 30 24 21 23 19 18 21 24 32 42 51 53 58 55 58 61 65 70 71 73 75 72 68 74 72 74 74 80 82 78 78 73 77 77 80 74 80 78 79 78 72 90
19 20 22 26 26 38 29 27 25 19 20 17 17 19 32 46 50 54 55 55 57 54 58 65 69 72 73 72 76 75 76 77 72 72 71 72 79 88 77 74 77 79 77 78 74 76 78 79 87
22 28 33 37 36 37 23 28 28 18 18 21 19 18 38 49 51 55 56 52 58 58 60 62 65 71 72 72 73 71 75 78 76 76 74 84 87 88 81 80 81 80 79 78 76 79 78 77 82
26 29 26 37 34 24 26 29 24 22 17 17 19 22 38 50 50 51 51 52 52 57 61 58 62 66 69 70 71 72 74 67 69 74 74 86 82 73 82 78 76 76 76 76 78 70 70 78 78
24 28 20 25 34 26 28 31 30 24 24 24 22 31 42 52 53 51 51 52 52 59 62 61 61 62 66 69 71 73 73 78 77 81 86 77 82 77 78 76 76 76 74 74 80 72 80 80 84
22 21 30 24 29 30 29 35 22 25 23 23 29 37 49 54 52 50 49 52 53 56 60 60 58 59 62 66 66 66 71 75 76 80 82 81 81 77 77 76 76 77 77 78 79 79 78 80 89
17 23 22 21 23 22 24 20 29 24 24 25 28 40 50 52 48 48 45 49 49 52 52 59 58 58 61 64 66 71 73 70 74 77 76 78 79 77 74 73 74 78 88 86 86 84 82 85 87
15 20 23 22 34 24 25 23 25 29 24 27 31 43 46 47 46 43 44 46 48 52 53 56 58 54 56 59 62 70 71 69 76 78 76 76 79 75 72 70 71 86 87 88 82 83 78 79 84
Wind_Speed
11 8 2 1 3 3 3 3 2 4 2 3 7 5 5 3 4 6 2 11 8 19 17 22 22 21 20 19 16 15 15 14 14 12 11 10 9 8 7 7 7 7 7 6 5 5 5 5 8
9 5 2 2 2 4 4 3 7 1 6 8 6 7 5 7 4 5 4 15 12 18 16 21 23 22 21 19 17 17 16 15 14 13 13 12 12 11 12 12 11 10 10 10 9 8 8 6 8
10 3 3 2 3 7 3 7 4 4 10 4 3 3 4 5 4 3 3 17 12 17 17 19 24 22 21 20 19 18 17 16 15 15 14 13 13 12 12 13 13 12 12 13 13 11 11 10 9
4 4 3 4 10 6 5 4 4 10 2 3 2 7 3 4 4 4 9 17 14 17 17 19 24 23 21 20 19 19 18 17 16 16 15 14 14 13 13 14 14 14 14 14 16 13 12 11 11
2 1 4 5 7 7 9 13 6 7 5 5 2 3 5 3 4 6 11 15 16 16 16 17 22 22 21 20 19 18 17 16 16 16 15 15 15 13 13 14 15 15 16 16 16 14 13 12 11
3 0 5 8 9 8 8 10 4 6 2 3 4 3 5 2 5 7 11 16 14 16 17 15 21 22 21 20 19 17 16 16 16 14 14 13 13 12 12 13 12 14 15 15 15 15 12 13 11
4 3 5 7 9 8 7 1 5 5 1 2 1 4 4 5 5 3 9 13 12 13 15 14 17 19 20 19 18 17 16 15 14 13 13 12 11 10 9 10 10 12 14 15 15 15 15 13 12
2 3 4 6 7 9 5 5 3 1 1 2 4 3 7 8 2 6 8 11 11 12 14 15 15 16 16 15 16 16 15 14 13 13 13 11 10 9 9 8 10 11 12 14 16 17 16 14 13
2 6 11 9 9 8 1 3 1 2 7 5 6 11 6 3 2 6 9 12 11 12 14 14 15 15 15 13 13 14 15 14 12 13 12 9 7 7 8 8 10 12 13 13 15 15 15 15 16
9 12 15 14 12 11 3 6 6 6 11 20 15 13 9 5 7 10 15 17 18 17 17 15 14 13 12 9 10 11 10 9 9 8 9 7 7 7 7 9 11 12 13 13 15 14 12 10 9
10 20 24 20 15 8 14 12 10 13 19 20 17 19 18 13 12 13 17 20 22 18 13 15 13 12 13 10 8 5 5 5 5 8 7 7 6 6 6 5 5 6 7 7 7 8 7 9 7
14 18 23 25 17 14 20 15 16 18 27 24 21 18 19 19 16 15 18 20 19 18 15 14 15 13 12 7 7 7 6 5 5 6 8 6 6 7 7 6 6 6 5 6 6 5 6 8 8
19 21 19 20 22 20 19 22 22 23 28 22 20 19 19 18 17 17 19 19 18 19 15 14 14 13 12 10 7 6 6 6 6 6 7 7 7 7 7 7 7 6 6 5 5 5 6 6 7
10 23 24 20 18 20 20 27 15 22 24 20 19 21 22 20 21 18 14 19 18 16 15 14 15 13 12 10 9 6 6 5 5 5 6 8 7 7 7 7 7 7 6 5 6 5 5 6 6
14 16 14 13 18 14 12 23 23 27 23 18 20 21 21 22 19 17 18 18 19 15 14 16 14 14 13 12 9 6 5 5 5 6 8 9 9 9 9 8 8 8 6 7 5 5 5 5 5
11 9 17 13 19 12 12 24 16 17 13 15 17 17 17 20 19 18 18 16 12 12 16 15 14 15 14 11 8 6 5 4 5 7 7 9 10 10 9 8 7 6 6 5 5 5 5 6 6
9 16 18 14 10 4 16 21 11 11 11 15 19 20 19 20 21 17 15 14 12 16 17 17 16 16 15 11 7 5 5 5 6 6 7 8 9 10 8 6 6 6 6 5 5 5 6 5 5
16 11 11 12 10 18 21 25 17 16 15 17 20 20 19 19 24 16 11 9 13 16 16 18 16 17 14 9 5 4 3 6 6 6 6 8 7 9 7 4 5 6 6 5 5 6 5 5 5
18 19 23 18 14 13 19 21 14 15 20 20 20 20 19 19 17 7 3 5 11 14 16 17 17 14 11 8 6 4 4 5 5 5 6 7 7 8 6 5 6 6 6 6 6 6 7 5 5
24 22 20 15 12 10 15 23 16 14 19 21 22 21 20 19 11 2 3 6 10 13 14 17 16 14 10 7 4 2 3 3 3 3 4 4 5 5 6 6 5 7 5 7 7 8 5 4 6
26 28 22 21 9 11 11 22 17 21 14 15 20 18 18 16 9 4 8 9 10 12 16 16 15 13 9 7 5 3 2 3 3 1 0 1 3 5 5 7 6 7 6 6 7 8 9 6 4
27 23 21 21 11 15 3 18 13 19 22 21 21 15 15 10 3 7 9 11 13 14 15 14 13 12 9 8 5 4 2 2 0 1 1 1 1 2 5 7 7 6 4 4 6 7 7 6 7
19 17 17 20 17 17 18 15 15 12 19 24 19 15 6 1 4 9 11 13 14 15 14 13 12 11 10 8 5 4 3 1 0 1 2 2 1 3 5 6 6 5 4 6 7 8 8 6 6
12 12 16 12 11 14 18 15 14 16 20 16 12 9 2 5 8 9 11 15 16 14 13 12 12 10 9 7 6 4 2 3 2 1 1 2 0 3 5 5 5 4 5 6 7 8 8 6 4
20 14 7 7 8 10 15 12 19 14 16 15 15 8 5 7 11 12 14 17 17 16 14 12 12 10 9 7 6 4 3 3 1 1 2 0 3 4 5 4 4 4 5 6 6 7 7 6 5
26 21 9 10 8 9 7 11 10 20 21 20 16 8 5 9 11 13 16 16 17 16 14 13 11 10 9 7 6 4 4 1 1 1 2 1 3 4 5 4 3 4 5 5 6 5 5 4 2
24 21 14 3 1 5 6 6 12 15 9 11 14 7 8 11 13 16 17 16 15 15 14 13 11 9 8 7 5 4 3 2 0 1 1 3 4 5 5 5 4 4 5 5 5 4 5 5 5
19 19 12 10 11 9 6 4 9 9 14 9 9 10 11 12 14 16 17 16 14 14 13 11 10 9 8 7 5 4 3 1 3 3 4 5 5 6 6 5 4 4 5 5 5 5 5 5 4
13 23 8 9 5 6 3 5 8 12 13 14 10 12 15 16 16 17 16 15 14 13 13 10 9 8 7 6 5 5 4 3 4 3 2 4 6 6 6 6 5 5 5 5 4 5 5 6 6
20 20 21 11 11 5 2 4 3 8 2 1 8 11 13 15 15 17 16 15 14 13 12 10 8 7 7 6 5 5 5 4 4 4 4 5 6 6 6 6 5 5 5 5 6 6 5 6 6
Wind_Direction
147 146 152 168 217 272 240 224 268 223 199 170 134 189 219 288 195 297 73 185 165 163 167 173 178 182 187 187 185 184 188 188 188 190 192 196 203 211 222 232 246 262 267 265 263 262 259 244 264
150 147 170 140 217 219 209 224 214 220 328 292 217 200 210 261 235 273 191 179 178 165 168 179 184 186 188 188 188 189 192 194 194 199 203 211 218 221 224 224 231 240 258 264 255 252 253 247 249
161 222 217 234 217 224 208 200 221 306 301 244 258 250 172 212 206 249 202 167 166 171 174 182 183 188 190 192 190 192 194 197 198 206 213 218 227 233 237 236 239 242 245 256 252 254 258 241 240
178 176 115 241 238 251 251 187 289 317 116 178 247 263 235 253 180 202 153 166 170 178 180 183 185 188 192 195 195 194 195 199 203 212 219 225 232 237 241 247 253 251 249 248 254 246 257 262 249
187 141 227 246 247 250 238 266 258 289 303 304 209 267 262 247 214 166 164 176 181 180 186 188 190 189 192 197 199 198 199 203 208 214 222 230 239 241 248 251 258 259 258 257 253 250 250 255 260
133 296 222 243 241 252 260 246 229 249 216 291 184 257 258 342 227 191 175 189 191 182 186 191 193 191 192 196 199 199 202 208 212 217 226 233 244 244 250 259 267 268 267 268 263 255 263 261 261
192 187 260 275 275 265 245 194 201 168 248 143 153 261 284 322 276 237 208 193 195 190 188 189 195 197 195 196 197 197 203 211 215 220 230 237 243 249 254 263 272 278 278 273 267 262 261 257 257
174 217 245 236 272 277 201 182 148 185 39 28 195 245 301 328 20 185 217 209 203 197 198 195 196 196 200 202 200 196 202 209 215 220 233 233 239 242 247 261 263 280 278 275 268 261 264 265 259
151 226 242 241 225 243 258 190 59 346 298 262 254 269 300 326 153 197 207 218 216 209 205 200 198 197 197 200 202 201 208 213 216 225 228 223 238 246 254 266 274 271 271 269 265 264 264 265 260
187 227 231 232 232 264 274 294 311 281 286 279 281 271 271 273 256 239 217 219 215 214 205 200 200 201 197 193 200 203 214 221 221 222 223 227 235 239 246 259 262 270 269 263 265 269 285 272 250
201 228 234 258 247 251 283 277 297 290 283 279 291 297 303 286 269 239 242 234 224 219 216 200 191 189 197 193 191 199 208 210 215 221 221 225 237 238 238 257 261 264 258 264 260 266 261 267 268
241 229 241 251 260 271 271 299 277 280 270 278 288 285 283 287 278 245 245 240 228 219 218 200 189 184 188 192 184 193 204 207 217 219 222 227 233 235 241 248 249 246 253 257 259 258 259 268 258
227 236 238 251 265 265 278 272 271 284 276 278 281 281 270 272 265 258 246 250 238 224 209 196 189 181 175 179 185 195 204 212 218 222 228 231 241 240 242 247 246 244 247 247 252 255 260 254 246
222 235 242 246 257 261 266 268 273 266 270 285 284 277 279 270 267 270 248 244 229 221 199 180 190 177 169 177 184 192 206 209 218 231 235 226 238 240 250 245 239 242 237 242 245 248 253 246 236
240 244 229 233 240 252 272 265 246 256 271 273 275 279 280 276 275 253 248 235 227 216 184 172 178 178 173 177 186 194 201 213 223 236 235 231 231 236 241 239 237 237 216 227 236 238 237 239 229
216 225 234 228 232 241 227 265 268 262 271 285 283 281 282 280 277 271 256 240 226 186 178 165 174 178 172 173 183 191 198 219 239 243 244 237 234 233 233 236 238 233 213 225 232 232 227 229 222
214 238 224 230 189 169 199 265 254 272 283 281 281 286 286 285 283 267 263 251 190 177 169 169 167 175 172 170 172 184 202 231 241 245 243 242 235 229 231 235 238 214 206 215 226 222 234 221 214
219 233 227 225 212 234 240 254 275 280 286 284 286 287 283 277 271 290 274 214 183 175 167 162 165 164 166 155 158 177 218 244 242 242 241 238 228 220 221 211 222 212 211 206 213 223 209 221 213
246 239 238 231 219 244 253 265 270 287 295 287 286 282 275 270 285 302 299 189 175 172 170 164 151 158 155 152 165 194 223 230 232 237 250 241 228 215 206 208 212 211 210 212 212 215 211 205 193
231 243 240 247 245 254 274 274 286 286 276 280 280 279 271 278 272 281 123 159 183 169 161 155 152 155 163 152 156 170 203 228 271 271 269 247 222 217 208 207 191 201 198 203 205 209 196 199 191
225 232 237 247 265 256 285 276 277 279 277 278 275 269 269 267 279 175 147 160 163 157 155 149 152 154 155 148 145 146 200 226 235 231 330 32 228 216 205 200 197 196 205 204 197 206 198 179 193
231 223 242 246 245 257 224 283 266 284 288 280 279 274 272 276 205 160 149 153 153 156 150 145 146 148 153 161 156 178 204 252 228 300 313 253 256 201 199 202 190 201 199 203 194 194 203 192 179
236 218 223 230 234 260 247 267 284 259 271 274 274 269 268 218 162 151 153 149 157 149 148 145 145 149 151 154 166 166 192 205 156 231 258 239 240 158 168 175 185 199 195 192 196 187 204 207 196
196 232 215 225 235 242 252 240 264 255 247 264 261 244 42 85 117 134 146 143 147 149 146 145 149 151 153 161 159 172 175 157 199 220 264 250 189 179 166 166 178 167 186 193 192 191 205 214 224
193 182 172 202 211 249 235 221 244 253 243 248 267 271 113 132 136 145 153 151 151 154 152 151 154 156 161 167 164 162 155 180 204 259 308 14 178 170 149 166 171 167 193 196 182 189 200 206 219
191 189 190 192 203 225 186 220 248 234 246 238 243 258 151 155 149 150 160 155 156 157 156 158 160 156 167 164 167 154 162 137 239 259 357 175 186 148 154 139 135 159 162 166 179 188 190 191 210
192 207 195 226 14 254 168 249 277 248 249 219 228 207 179 169 156 157 161 165 161 160 165 160 159 158 160 163 159 161 139 212 174 78 143 145 136 151 146 132 148 162 146 152 151 155 158 164 161
189 168 189 215 214 231 180 239 242 213 227 224 218 198 170 162 159 160 168 167 168 165 164 159 165 158 158 159 161 142 135 168 104 132 147 132 130 148 146 142 151 147 129 139 143 142 153 150 139
180 188 189 194 221 218 245 229 216 227 219 197 201 176 166 165 160 164 170 170 166 166 163 160 160 157 155 163 155 149 130 128 129 139 147 147 138 149 158 158 154 120 123 124 147 141 143 143 147
193 190 188 198 189 181 216 251 50 251 199 213 125 143 156 153 156 167 168 168 167 171 163 163 159 167 164 160 155 151 138 133 125 108 115 136 131 146 159 164 148 123 124 133 136 133 144 145 137